THOR ABLESTAR DEB, 4014

Orbit data source: Space-Track

THOR ABLESTAR DEB, 4014 is space debris in LEO originally from a launch on Thu, 29 Jun 1961 UTC launched from the Air Force Eastern Test Range (AFETR). Debris objects in space refer to the collection of defunct objects orbiting the Earth. Examples of debris include non-operational satellites, rocket bodies, and fragments generated from explosions, collisions, or faulty payload assembly.

Loading next visibility...
Identifier
4014, 1961-015JM
Orbit
LEO
Country
Flag of USUS
Related business
Manufacturer
Unknown
Mission
Spacecraft
Bus & Motor
Unknown
Mass
Unknown
Launch date (UTC)
1961-06-29 (65 years ago)
Launch vehicle
Unknown
Launch site
Air Force Eastern Test Range (AFETR)
Object type
Payload
Rocket body
Debris
Shape & HBR
Unknown shape, 0.1 m
Radar Cross Section
Small (<0.1 m²)

Expand to show TLE details & history
Last TLE update: 21 hours ago

TLE from 21 hours ago
0 THOR ABLESTAR DEB
1 04014U 61015JM  26012.79287159  .00000295  00000-0  94598-3 0  9995
2 04014  67.6248 144.8963 0815057  87.3777  57.5955 12.30144421895251
Epoch: 2026-01-12T19:01Z
TLE epoch observation values (Epoch: 2026-01-12T19:01:44.105Z)
Latitude
24.60422°
Longitude
-83.63208°
Altitude
1,244.48 km
Speed
7.374 km/s
True Right ascension
20h 56m 20s
True Declination
24° 28' 57"
Sunlit
Object was in daylight at epoch
Visualization orbit readout
Latitude
Unknown
Longitude
Unknown
Altitude
Unknown
Speed
Unknown
Apparent Right ascension
Unknown
Apparent Declination
Unknown
Sunlit
N/A
Visualization observer readout
Local Sidereal Time
16:59:03
Azimuth
Unknown
Elevation
Unknown
Doppler factor
Unknown
Orbital elements
Apogee altitude
2,193.03 km
Perigee altitude
901.129 km
Semi-major axis
7,925.217 km
Eccentricity
0.08151
Inclination
67.6248°
RAAN
144.8963°
Arg. of periapsis
87.3777°
True anomaly
65.90586°
Mean anomaly
57.5955°
Eccentric anomaly
61.70756°
Mean motion
3.07628 °/min
Orbital period
117.02 mins
BSTAR
0.00094598

Documentation

Showing up to 5 results
|